Regional Weather Roundup
Issued by NWS

Home | Current Version | Previous Version | Graphics & Text | Print | Product List | Glossary On
Versions: 1 2 3 4 5 6 7 8 9 10 11 12 13 14 15 16 17 18 19 20 21 22 23 24 25 26 27 28 29 30 31 32 33 34 35 36 37 38 39 40 41 42 43 44 45 46 47 48 49 50
000
ASUS43 KLMK 281302
RWRKY
KENTUCKY REGIONAL WEATHER ROUNDUP
NATIONAL WEATHER SERVICE LOUISVILLE KY
900 AM EDT THU AUG 28 2014

NOTE "FAIR" INDICATES FEW OR NO CLOUDS BELOW 12,000 FEET
WITH NO SIGNIFICANT WEATHER AND/OR OBSTRUCTIONS TO VISIBILITY.

KYZ001>023-026-027-061>063-070>075-281400-
WESTERN AND SOUTH CENTRAL KENTUCKY

CITY           SKY/WX    TMP DP  RH WIND       PRES   REMARKS
PADUCAH        SUNNY     78  72  81 CALM      30.04R
HENDERSON      MOSUNNY   75  72  88 E5        30.05R
OWENSBORO      SUNNY     78  72  82 E7        30.05S
HOPKINSVILLE   SUNNY     75  75 100 E3        30.05S
BOWLING GREEN  SUNNY     77  71  82 E3        30.06R
GLASGOW        SUNNY     73  71  94 CALM      30.07S FOG
$$

KYZ024-025-028>034-038-045-046-053-281400-
NORTH CENTRAL KENTUCKY

CITY           SKY/WX    TMP DP  RH WIND       PRES   REMARKS
LOUISVILLE/SDF MOSUNNY   77  72  84 N7        30.07R
LOUISVILLE/LOU MOSUNNY   75  71  87 NE3       30.08R
FORT KNOX      SUNNY     74  74 100 NE5       30.06S
$$

KYZ035>037-039>044-047>052-055>060-089>105-281400-
NORTHEAST KENTUCKY

CITY           SKY/WX    TMP DP  RH WIND       PRES   REMARKS
LEXINGTON      SUNNY     76  71  85 NE5       30.09R HAZE
COVINGTON      MOSUNNY   72  64  76 E9        30.10R
FRANKFORT      MOSUNNY   73  70  90 NE3       30.08R
$$

KYZ054-064>069-076>088-106>120-281400-
SOUTHEAST KENTUCKY

CITY           SKY/WX    TMP DP  RH WIND       PRES   REMARKS
JACKSON        FOG       71  69  93 CALM      30.10R VSB 1/4
LONDON         SUNNY     73  68  84 CALM      30.10R
SOMERSET       FOG       70  70 100 CALM      30.10R VSB<1/4
MIDDLESBORO    CLOUDY    65  65  99 CALM      30.11S FOG
MONTICELLO     FOG       72  72 100 CALM      30.10R VSB 3/4
$$




USA.gov is the U.S. government's official web portal to all federal, state and local government web resources and services.